Weather History for Clermont County, Batavia, OH

Change the Weather History Date:

Thursday, August 14, 2014

  Actual Average (KLUK) Record (KLUK)
Temperature  
Mean Temperature 72 °F -  
Max Temperature 80 °F 85 °F 95 °F (1988)
Min Temperature 64 °F 64 °F 50 °F (1964)
Cooling Degree Days 7    
Growing Degree Days 22 (Base 50)    
Moisture  
Dew Point 57 °F    
Average Humidity 61    
Maximum Humidity 100    
Minimum Humidity 32    
Precipitation  
Precipitation 0.03 in - - ()
Sea Level Pressure  
Sea Level Pressure 30.02 in    
Wind  
Wind Speed 4 mph (NW)    
Max Wind Speed 13 mph    
Max Gust Speed 18 mph    
Visibility 10 miles    
Events Rain    
Averages and records for this station are not official NWS values.
T = Trace of Precipitation, MM = Missing Value Source: NWS Daily Summary

Daily Weather History Graph

Daily Weather History Graph

Search for Another Location

Airport:

Trip Planner

Search our weather history database for the weather conditions in past years. The results will help you decide how hot, cold, wet, or windy it might be!

Date:

Astronomy

Aug. 14, 2014 Rise Set
Actual Time 6:49 AM EDT 8:33 PM EDT
Civil Twilight 6:20 AM EDT 9:01 PM EDT
Nautical Twilight 5:45 AM EDT 9:36 PM EDT
Astronomical Twilight 5:08 AM EDT 10:13 PM EDT
Moon 10:58 PM EDT (8/14) 11:22 AM EDT (8/14)
Length of Visible Light 14h 41m
Length of Day
13h 43m
Waning Gibbous, 79% of the Moon is Illuminated
Aug 14
Waning Gibbous
Aug 17
Last Quarter
Aug 25
New
Sep 2
First Quarter
Sep 8
Full

Hourly Weather History & Observations

Time (EDT) Temp. Heat Index Dew Point Humidity Pressure Visibility Wind Dir Wind Speed Gust Speed Precip Events Conditions
12:15 AM 68.0 °F - 53.6 °F 60% 30.04 in 10.0 mi WSW 4.6 mph - N/A   Overcast
12:36 AM 69.8 °F - 53.6 °F 56% 30.03 in 10.0 mi WSW 3.5 mph - N/A   Overcast
12:56 AM 68.0 °F - 55.4 °F 64% 30.04 in 10.0 mi WSW 4.6 mph - N/A   Overcast
1:15 AM 68.0 °F - 55.4 °F 64% 30.03 in 10.0 mi WSW 4.6 mph - N/A   Overcast
1:36 AM 69.8 °F - 55.4 °F 60% 30.03 in 10.0 mi WSW 5.8 mph - N/A   Overcast
1:56 AM 68.0 °F - 55.4 °F 64% 30.03 in 10.0 mi WSW 4.6 mph - N/A   Overcast
2:15 AM 69.8 °F - 55.4 °F 60% 30.03 in 10.0 mi West 5.8 mph - N/A   Overcast
2:36 AM 69.8 °F - 55.4 °F 60% 30.02 in 10.0 mi West 3.5 mph - N/A   Overcast
2:56 AM 69.8 °F - 55.4 °F 60% 30.02 in 10.0 mi WNW 4.6 mph - N/A   Overcast
3:15 AM 69.8 °F - 55.4 °F 60% 30.02 in 10.0 mi West 5.8 mph - N/A   Overcast
3:36 AM 69.8 °F - 57.2 °F 64% 30.01 in 10.0 mi WNW 6.9 mph - N/A   Overcast
3:56 AM 69.8 °F - 57.2 °F 64% 30.01 in 10.0 mi West 4.6 mph - N/A   Overcast
4:15 AM 69.8 °F - 57.2 °F 64% 30.01 in 10.0 mi West 3.5 mph - N/A   Overcast
4:36 AM 68.0 °F - 59.0 °F 73% 30.02 in 7.0 mi NW 6.9 mph - 0.01 in Rain Rain
4:56 AM 68.0 °F - 60.8 °F 78% 30.02 in 10.0 mi WNW 5.8 mph - 0.01 in   Overcast
5:15 AM 68.0 °F - 62.6 °F 83% 30.02 in 10.0 mi Calm Calm - N/A   Overcast
5:36 AM 66.2 °F - 62.6 °F 88% 30.02 in 7.0 mi NW 3.5 mph - 0.02 in Rain Light Rain
5:56 AM 66.2 °F - 62.6 °F 88% 30.02 in 10.0 mi Calm Calm - 0.02 in Rain Rain
6:15 AM 66.2 °F - 62.6 °F 88% 30.02 in 10.0 mi Calm Calm - N/A   Overcast
6:36 AM 64.4 °F - 62.6 °F 94% 30.03 in 10.0 mi West 3.5 mph - N/A   Overcast
6:56 AM 64.4 °F - 64.4 °F 100% 30.03 in 10.0 mi Calm Calm - N/A   Overcast
7:15 AM 66.2 °F - 64.4 °F 94% 30.04 in 10.0 mi West 4.6 mph - N/A   Overcast
7:36 AM 66.2 °F - 64.4 °F 94% 30.05 in 10.0 mi West 3.5 mph - N/A   Overcast
7:56 AM 66.2 °F - 64.4 °F 94% 30.05 in 10.0 mi West 3.5 mph - N/A   Overcast
8:15 AM 68.0 °F - 64.4 °F 88% 30.06 in 10.0 mi West 4.6 mph - N/A   Mostly Cloudy
8:36 AM 68.0 °F - 64.4 °F 88% 30.06 in 10.0 mi WNW 4.6 mph - N/A   Overcast
8:56 AM 68.0 °F - 62.6 °F 83% 30.06 in 10.0 mi West 5.8 mph - N/A   Overcast
9:16 AM 69.8 °F - 64.4 °F 83% 30.06 in 10.0 mi Calm Calm - N/A   Scattered Clouds
9:36 AM 69.8 °F - 62.6 °F 78% 30.06 in 10.0 mi Calm Calm - N/A   Scattered Clouds
9:55 AM 69.8 °F - 62.6 °F 78% 30.06 in 10.0 mi Calm Calm - N/A   Scattered Clouds
10:16 AM 71.6 °F - 60.8 °F 69% 30.05 in 10.0 mi NE 3.5 mph - N/A   Scattered Clouds
10:36 AM 71.6 °F - 60.8 °F 69% 30.05 in 10.0 mi Calm Calm - N/A   Clear
10:55 AM 73.4 °F - 59.0 °F 61% 30.06 in 10.0 mi Calm Calm - N/A   Clear
11:16 AM 73.4 °F - 60.8 °F 65% 30.05 in 10.0 mi Calm Calm - N/A   Clear
11:36 AM 73.4 °F - 59.0 °F 61% 30.05 in 10.0 mi Calm Calm - N/A   Mostly Cloudy
11:55 AM 75.2 °F - 59.0 °F 57% 30.05 in 10.0 mi NNE 4.6 mph - N/A   Overcast
12:16 PM 77.0 °F - 59.0 °F 54% 30.05 in 10.0 mi ENE 5.8 mph - N/A   Overcast
12:36 PM 75.2 °F - 60.8 °F 61% 30.04 in 10.0 mi ENE 4.6 mph - N/A   Overcast
12:56 PM 77.0 °F - 60.8 °F 57% 30.04 in 10.0 mi NE 3.5 mph - N/A   Scattered Clouds
1:16 PM 77.0 °F - 59.0 °F 54% 30.03 in 10.0 mi North 4.6 mph - N/A   Mostly Cloudy
1:36 PM 77.0 °F - 60.8 °F 57% 30.03 in 10.0 mi NW 3.5 mph - N/A   Mostly Cloudy
1:56 PM 77.0 °F - 59.0 °F 54% 30.02 in 10.0 mi North 6.9 mph - N/A   Mostly Cloudy
2:16 PM 78.8 °F - 59.0 °F 51% 30.02 in 10.0 mi NNE 8.1 mph - N/A Rain Light Rain
2:36 PM 78.8 °F - 59.0 °F 51% 30.01 in 10.0 mi North 5.8 mph - N/A   Mostly Cloudy
2:56 PM 78.8 °F - 59.0 °F 51% 30.01 in 10.0 mi NE 5.8 mph - N/A   Mostly Cloudy
3:16 PM 80.6 °F 80.5 °F 55.4 °F 42% 30.00 in 10.0 mi NW 8.1 mph 16.1 mph N/A   Scattered Clouds
3:36 PM 80.6 °F 80.5 °F 55.4 °F 42% 30.00 in 10.0 mi North 8.1 mph - N/A   Scattered Clouds
3:56 PM 80.6 °F 80.5 °F 55.4 °F 42% 30.00 in 10.0 mi NNW 5.8 mph - N/A   Scattered Clouds
4:16 PM 80.6 °F 80.3 °F 53.6 °F 39% 30.00 in 10.0 mi NNW 11.5 mph 18.4 mph N/A   Scattered Clouds
4:36 PM 80.6 °F - 51.8 °F 37% 29.99 in 10.0 mi NNW 12.7 mph 16.1 mph N/A   Scattered Clouds
4:56 PM 80.6 °F - 51.8 °F 37% 29.99 in 10.0 mi North 9.2 mph - N/A   Scattered Clouds
5:16 PM 80.6 °F 80.3 °F 53.6 °F 39% 29.99 in 10.0 mi NNW 12.7 mph - N/A   Scattered Clouds
5:36 PM 80.6 °F - 51.8 °F 37% 29.98 in 10.0 mi NNW 9.2 mph 17.3 mph N/A   Clear
5:56 PM 80.6 °F - 50.0 °F 34% 29.98 in 10.0 mi North 11.5 mph 16.1 mph N/A   Scattered Clouds
6:16 PM 80.6 °F - 48.2 °F 32% 29.98 in 10.0 mi North 9.2 mph - N/A   Clear
6:36 PM 78.8 °F - 48.2 °F 34% 29.98 in 10.0 mi NNW 6.9 mph - N/A   Clear
6:56 PM 78.8 °F - 48.2 °F 34% 29.98 in 10.0 mi NNW 10.4 mph - N/A   Clear
7:16 PM 78.8 °F - 50.0 °F 36% 29.98 in 10.0 mi North 4.6 mph - N/A   Clear
7:36 PM 77.0 °F - 51.8 °F 41% 29.98 in 10.0 mi NNW 5.8 mph - N/A   Clear
7:55 PM 77.0 °F - 50.0 °F 39% 29.99 in 10.0 mi North 6.9 mph - N/A   Clear
8:16 PM 75.2 °F - 50.0 °F 41% 29.99 in 10.0 mi North 4.6 mph - N/A   Clear
8:36 PM 73.4 °F - 50.0 °F 44% 29.99 in 10.0 mi NNW 4.6 mph - N/A   Clear
8:55 PM 71.6 °F - 50.0 °F 46% 30.00 in 10.0 mi NNW 4.6 mph - N/A   Clear
9:16 PM 71.6 °F - 50.0 °F 46% 30.00 in 10.0 mi North 3.5 mph - N/A   Clear
9:36 PM 69.8 °F - 51.8 °F 53% 30.00 in 10.0 mi Calm Calm - N/A   Clear
9:55 PM 69.8 °F - 53.6 °F 56% 30.01 in 10.0 mi Calm Calm - N/A   Clear
10:16 PM 68.0 °F - 53.6 °F 60% 30.02 in 10.0 mi Calm Calm - N/A   Clear
10:36 PM 68.0 °F - 53.6 °F 60% 30.03 in 10.0 mi Calm Calm - N/A   Clear
10:55 PM 68.0 °F - 53.6 °F 60% 30.03 in 10.0 mi Calm Calm - N/A   Clear
11:16 PM 68.0 °F - 55.4 °F 64% 30.03 in 10.0 mi Calm Calm - N/A   Clear
11:36 PM 64.4 °F - 55.4 °F 73% 30.04 in 10.0 mi Calm Calm - N/A   Clear
11:55 PM 64.4 °F - 55.4 °F 73% 30.04 in 10.0 mi Calm Calm - N/A   Clear